Flag for Germany Weather past 2 weeks in Seevetal, Lower Saxony, Germany

Now
50 °F

Passing clouds.


Feels Like: 47 °F
Forecast: 48 / 56 °F
Wind: 8 mph from South

Location: Hamburg-Fuhlsbuettel

Current Time: Oct 25, 2014 at 9:25:09 AM

Latest Report: Oct 25, 2014 at 8:50 AM


Visibility: 3 mi

Pressure: 30.01 "Hg

Humidity: 94%

Dew point: 48 °F

Location of SeevetalLocation

Historic Weather in Seevetal — Graph

°F

Seevetal temperature yesterday

Maximum temperature yesterday: 57 °F (at 1:50 PM)
Minimum temperature yesterday: 52 °F (at 3:20 AM)
Average temperature yesterday: 54 °F

Past Weeks' High & Low Weather Summary

 TemperatureHumidityPressure
High72 °F (Oct 19, 1:50 PM)100% (Oct 10, 9:20 PM)30.18 "Hg (Oct 10, 9:20 PM)
Low48 °F (Oct 11, 5:20 AM)59% (Oct 14, 3:50 PM)29.36 "Hg (Oct 21, 6:20 PM)
Average56 °F87%29.85 "Hg
* Reported Oct 10 8:20 AM — Oct 25 8:20 AM, Seevetal, Weather by CustomWeather, © 2014

Note: Actual official high and low records may vary slightly from our data, if they occured in-between our weather recording intervals... More about our weather records

Advertising

Seevetal weather history for previous 24 hours

 ConditionsComfort  
Time TempWeatherWind HumidityBarometerVisibility
8:20 AM
Oct 25
50 °FPassing clouds.10 mph94%30.01 "Hg2 mi
7:50 AM50 °FLight rain. Passing clouds.10 mph94%30.01 "HgN/A
7:20 AM50 °FLight rain. Passing clouds.12 mph94%30.01 "HgN/A
6:50 AM50 °FLight rain. Partly cloudy.10 mph94%30.01 "HgN/A
6:20 AM50 °FLight rain. Overcast.12 mph94%30.01 "HgN/A
5:50 AM50 °FLight rain. Mostly cloudy.9 mph94%30.01 "HgN/A
5:20 AM50 °FLight rain. Passing clouds.9 mph88%30.01 "HgN/A
4:50 AM50 °FLight rain. Passing clouds.10 mph88%30.01 "HgN/A
4:20 AM52 °FLight rain. Passing clouds.12 mph82%30.01 "HgN/A
3:50 AM52 °FPassing clouds.12 mph82%30.01 "HgN/A
3:20 AM52 °FLight rain. Partly cloudy.13 mph82%30.01 "HgN/A
2:50 AM52 °FPartly cloudy.12 mph82%30.01 "HgN/A
2:20 AM52 °FPassing clouds.13 mph82%30.04 "HgN/A
1:50 AM52 °FPartly cloudy.12 mph82%30.04 "HgN/A
1:20 AM52 °FPartly cloudy.10 mph82%30.04 "HgN/A
12:50 AM52 °FClear.10 mph82%30.04 "Hg10 mi
12:20 AM52 °FClear.12 mph82%30.04 "Hg10 mi
11:50 PM
Oct 24
52 °FClear.10 mph82%30.04 "Hg10 mi
11:20 PM52 °FClear.10 mph82%30.04 "Hg10 mi
10:50 PM52 °FLight rain. Clear.9 mph82%30.07 "HgN/A
10:20 PM54 °FClear.10 mph77%30.07 "Hg10 mi
9:50 PM54 °FClear.10 mph77%30.07 "Hg10 mi
9:20 PM54 °FClear.10 mph77%30.07 "Hg10 mi
8:50 PM54 °FOvercast.9 mph82%30.07 "HgN/A
8:20 PM54 °FPartly cloudy.9 mph82%30.07 "HgN/A
7:50 PM55 °FPassing clouds.10 mph77%30.07 "HgN/A
7:20 PM55 °FPassing clouds.9 mph77%30.07 "HgN/A
6:50 PM55 °FPartly sunny.10 mph77%30.07 "HgN/A
6:20 PM55 °FPartly sunny.10 mph72%30.07 "HgN/A
5:50 PM55 °FPartly sunny.9 mph77%30.07 "HgN/A
5:20 PM55 °FPartly sunny.9 mph77%30.07 "HgN/A
4:50 PM57 °FBroken clouds.9 mph72%30.09 "HgN/A
4:20 PM57 °FBroken clouds.10 mph72%30.09 "HgN/A
3:50 PM57 °FBroken clouds.10 mph72%30.09 "HgN/A
3:20 PM57 °FBroken clouds.15 mph72%30.09 "HgN/A
2:50 PM57 °FPartly sunny.13 mph72%30.09 "HgN/A
2:20 PM57 °FPartly sunny.9 mph72%30.09 "HgN/A
1:50 PM57 °FPartly sunny.13 mph72%30.09 "HgN/A
1:20 PM55 °FPartly sunny.14 mph77%30.12 "HgN/A
12:50 PM55 °FPartly sunny.14 mph77%30.12 "HgN/A
12:20 PM55 °FPartly sunny.13 mph77%30.15 "HgN/A
11:50 AM55 °FOvercast.13 mph77%30.15 "HgN/A
11:20 AM55 °FOvercast.12 mph77%30.15 "HgN/A
10:50 AM54 °FOvercast.13 mph82%30.15 "HgN/A
10:20 AM54 °FOvercast.12 mph82%30.15 "HgN/A
9:50 AM54 °FOvercast.10 mph82%30.15 "HgN/A
9:20 AM54 °FPartly sunny.12 mph82%30.15 "HgN/A
Weather by CustomWeather, © 2014

See weather overviewHow to use our weather pages